| time (UTC) | temp F | wind direction | speed MPH | gust MPH | rain 1hr in | rain 24hr in | rain mn in | humidity % | barometer mb |
| 20260506043033 | 61 | 190 | 0.0 | 2.0 | 0.00 | 0.00 | 0.00 | 68 | 1008.4 |
| 20260506041629 | 61 | 190 | 0.0 | 3.0 | 0.00 | 0.00 | 0.00 | 67 | 1008.3 |
| 20260506040053 | 61 | 187 | 1.0 | 5.0 | 0.00 | 0.00 | 0.00 | 67 | 1008.4 |
| 20260506034545 | 62 | 184 | 0.0 | 3.0 | 0.00 | 0.00 | 0.00 | 66 | 1008.4 |
| 20260506033002 | 62 | 165 | 1.0 | 6.0 | 0.00 | 0.00 | 0.00 | 66 | 1008.5 |
| 20260506031600 | 62 | 196 | 1.0 | 6.0 | 0.00 | 0.00 | 0.00 | 65 | 1008.5 |
| 20260506030011 | 62 | 178 | 1.0 | 4.0 | 0.00 | 0.00 | 0.00 | 65 | 1008.6 |
| 20260506024558 | 63 | 174 | 1.0 | 4.0 | 0.00 | 0.00 | 0.00 | 64 | 1008.6 |
| 20260506023011 | 63 | 183 | 1.0 | 4.0 | 0.00 | 0.00 | 0.00 | 62 | 1008.6 |
| 20260506021616 | 63 | 182 | 0.0 | 3.0 | 0.00 | 0.00 | 0.00 | 62 | 1008.3 |
| 20260506020012 | 64 | 178 | 1.0 | 3.0 | 0.00 | 0.00 | 0.00 | 63 | 1008.4 |
| 20260506014604 | 64 | 177 | 1.0 | 5.0 | 0.00 | 0.00 | 0.00 | 62 | 1008.3 |
| 20260506013023 | 64 | 191 | 1.0 | 5.0 | 0.00 | 0.00 | 0.00 | 62 | 1008.3 |
| 20260506011614 | 64 | 182 | 0.0 | 4.0 | 0.00 | 0.00 | 0.00 | 62 | 1008.2 |
| 20260506010032 | 65 | 186 | 1.0 | 3.0 | 0.00 | 0.00 | 0.00 | 61 | 1008.1 |
| 20260506004630 | 65 | 215 | 0.0 | 6.0 | 0.00 | 0.00 | 0.00 | 60 | 1008.0 |
| 20260506001501 | 67 | 173 | 1.0 | 5.0 | 0.00 | 0.00 | 0.00 | 58 | 1007.4 |
| 20260506000049 | 67 | 180 | 2.0 | 6.0 | 0.00 | 0.00 | 0.00 | 57 | 1007.2 |
| 20260505234506 | 68 | 181 | 2.0 | 6.0 | 0.00 | 0.00 | 0.00 | 55 | 1006.9 |
| 20260505233100 | 69 | 197 | 1.0 | 5.0 | 0.00 | 0.00 | 0.00 | 54 | 1006.6 |
| 20260505231526 | 69 | 184 | 2.0 | 5.0 | 0.00 | 0.00 | 0.00 | 53 | 1006.5 |
| 20260505230115 | 70 | 187 | 1.0 | 7.0 | 0.00 | 0.00 | 0.00 | 52 | 1006.3 |
| 20260505224532 | 70 | 193 | 3.0 | 7.0 | 0.00 | 0.00 | 0.00 | 51 | 1006.1 |
| 20260505223120 | 71 | 235 | 3.0 | 8.0 | 0.00 | 0.00 | 0.00 | 50 | 1006.0 |
| 20260505221551 | 72 | 188 | 2.0 | 9.0 | 0.00 | 0.00 | 0.00 | 48 | 1005.8 |
| 20260505220147 | 73 | 176 | 4.0 | 9.0 | 0.00 | 0.00 | 0.00 | 46 | 1005.7 |
| 20260505214609 | 74 | 183 | 4.0 | 9.0 | 0.00 | 0.00 | 0.00 | 45 | 1005.8 |
| 20260505213006 | 74 | 195 | 2.0 | 14.0 | 0.00 | 0.00 | 0.00 | 45 | 1005.6 |
| 20260505210014 | 75 | 240 | 2.0 | 14.0 | 0.00 | 0.00 | 0.00 | 44 | 1005.7 |
| 20260505204604 | 75 | 222 | 4.0 | 16.0 | 0.00 | 0.00 | 0.00 | 43 | 1005.7 |
| 20260505203024 | 76 | 191 | 3.0 | 10.0 | 0.00 | 0.00 | 0.00 | 41 | 1005.4 |
| 20260505201620 | 76 | 233 | 3.0 | 13.0 | 0.00 | 0.00 | 0.00 | 39 | 1005.5 |
| 20260505200034 | 76 | 198 | 4.0 | 14.0 | 0.00 | 0.00 | 0.00 | 39 | 1005.7 |
| 20260505194618 | 77 | 175 | 4.0 | 12.0 | 0.00 | 0.00 | 0.00 | 38 | 1006.0 |
| 20260505193032 | 77 | 250 | 3.0 | 9.0 | 0.00 | 0.00 | 0.00 | 37 | 1006.0 |
| 20260505191622 | 78 | 214 | 5.0 | 13.0 | 0.00 | 0.00 | 0.00 | 34 | 1005.9 |
| 20260505190039 | 77 | 168 | 2.0 | 13.0 | 0.00 | 0.00 | 0.00 | 36 | 1006.2 |
| 20260505184624 | 78 | 218 | 4.0 | 10.0 | 0.00 | 0.00 | 0.00 | 37 | 1006.6 |
| 20260505183047 | 78 | 247 | 3.0 | 11.0 | 0.00 | 0.00 | 0.00 | 36 | 1006.6 |
| 20260505181504 | 79 | 244 | 4.0 | 14.0 | 0.00 | 0.00 | 0.00 | 35 | 1006.8 |
| 20260505174525 | 78 | 223 | 2.0 | 11.0 | 0.00 | 0.00 | 0.00 | 36 | 1006.9 |
| 20260505173120 | 79 | 201 | 3.0 | 13.0 | 0.00 | 0.00 | 0.00 | 35 | 1007.1 |
| 20260505171544 | 77 | 240 | 2.0 | 9.0 | 0.00 | 0.00 | 0.00 | 38 | 1007.1 |
| 20260505170137 | 78 | 246 | 3.0 | 10.0 | 0.00 | 0.00 | 0.00 | 38 | 1007.4 |
| 20260505164633 | 78 | 245 | 2.0 | 14.0 | 0.00 | 0.00 | 0.00 | 36 | 1007.5 |
| 20260505163018 | 78 | 240 | 2.0 | 8.0 | 0.00 | 0.00 | 0.00 | 38 | 1007.5 |
| 20260505161606 | 76 | 234 | 2.0 | 9.0 | 0.00 | 0.00 | 0.00 | 38 | 1008.2 |
| 20260505153037 | 75 | 288 | 5.0 | 12.0 | 0.00 | 0.00 | 0.00 | 41 | 1008.7 |
| 20260505151626 | 74 | 260 | 2.0 | 10.0 | 0.00 | 0.00 | 0.00 | 43 | 1008.9 |
| 20260505130114 | 62 | 261 | 0.0 | 4.0 | 0.00 | 0.00 | 0.00 | 60 | 1009.5 |
| 20260505124522 | 61 | 239 | 0.0 | 7.0 | 0.00 | 0.00 | 0.00 | 61 | 1009.6 |
| 20260505123114 | 60 | 234 | 0.0 | 7.0 | 0.00 | 0.00 | 0.00 | 63 | 1009.7 |
| 20260505121532 | 60 | 250 | 0.0 | 5.0 | 0.00 | 0.00 | 0.00 | 63 | 1009.7 |
| 20260505120126 | 60 | 247 | 0.0 | 5.0 | 0.00 | 0.00 | 0.00 | 62 | 1009.7 |
| 20260505114540 | 58 | 243 | 0.0 | 4.0 | 0.00 | 0.00 | 0.00 | 64 | 1009.6 |
| 20260505111552 | 54 | 252 | 0.0 | 2.0 | 0.00 | 0.00 | 0.00 | 69 | 1009.7 |
| 20260505101611 | 52 | 276 | 0.0 | 2.0 | 0.00 | 0.00 | 0.00 | 70 | 1008.9 |
| 20260505100026 | 52 | 276 | 0.0 | 1.0 | 0.00 | 0.00 | 0.00 | 70 | 1008.8 |
| 20260505094609 | 52 | 276 | 0.0 | 2.0 | 0.00 | 0.00 | 0.00 | 70 | 1008.9 |
| 20260505093032 | 52 | 276 | 0.0 | 3.0 | 0.00 | 0.00 | 0.00 | 70 | 1008.9 |
| 20260505091622 | 52 | 275 | 0.0 | 0.0 | 0.00 | 0.00 | 0.00 | 69 | 1008.7 |
| 20260505090047 | 53 | 275 | 0.0 | 1.0 | 0.00 | 0.00 | 0.00 | 69 | 1009.1 |
| 20260505084634 | 53 | 275 | 0.0 | 2.0 | 0.00 | 0.00 | 0.00 | 68 | 1009.1 |
| 20260505083053 | 53 | 274 | 0.0 | 2.0 | 0.00 | 0.00 | 0.00 | 68 | 1009.1 |
| 20260505081517 | 53 | 275 | 0.0 | 7.0 | 0.00 | 0.00 | 0.00 | 68 | 1009.2 |
| 20260505080112 | 53 | 180 | 0.0 | 3.0 | 0.00 | 0.00 | 0.00 | 68 | 1009.2 |
| 20260505074536 | 52 | 191 | 0.0 | 2.0 | 0.00 | 0.00 | 0.00 | 68 | 1009.4 |
| 20260505073125 | 52 | 191 | 0.0 | 2.0 | 0.00 | 0.00 | 0.00 | 68 | 1009.4 |
| 20260505070131 | 52 | 191 | 0.0 | 2.0 | 0.00 | 0.00 | 0.00 | 67 | 1009.5 |
| 20260505064539 | 52 | 191 | 0.0 | 1.0 | 0.00 | 0.00 | 0.00 | 67 | 1009.4 |
| 20260505063002 | 53 | 191 | 0.0 | 3.0 | 0.00 | 0.00 | 0.00 | 67 | 1009.6 |
| 20260505061555 | 52 | 191 | 0.0 | 1.0 | 0.00 | 0.00 | 0.00 | 68 | 1009.7 |
| 20260505060015 | 51 | 191 | 0.0 | 0.0 | 0.00 | 0.00 | 0.00 | 69 | 1009.8 |
| 20260505054611 | 51 | 191 | 0.0 | 0.0 | 0.00 | 0.00 | 0.00 | 69 | 1009.9 |
| 20260505053020 | 50 | 191 | 0.0 | 0.0 | 0.00 | 0.00 | 0.00 | 70 | 1010.0 |
| 20260505051618 | 50 | 191 | 0.0 | 0.0 | 0.00 | 0.00 | 0.00 | 69 | 1010.2 |